Weather History for Point Pleasant, WV

Change the Weather History Date:

Thursday, March 21, 2013

  Actual Average (KHTS) Record (KHTS)
Temperature  
Mean Temperature 28 °F 48 °F  
Max Temperature 33 °F 59 °F 87 °F (2012)
Min Temperature 24 °F 37 °F 12 °F (1914)
Degree Days  
Heating Degree Days 36 18  
Month to date heating degree days 440  
Since 1 July heating degree days 3941  
Cooling Degree Days 0 0  
Month to date cooling degree days 0  
Year to date cooling degree days 0  
Moisture  
Dew Point 14 °F    
Average Humidity 55    
Maximum Humidity 80    
Minimum Humidity 41    
Precipitation  
Precipitation 0.00 in 0.13 in 1.28 in (1945)
Month to date precipitation 2.65  
Year to date precipitation 8.69  
Snow  
Snow 0.00 in - - ()
Month to date snowfall  
Since 1 September snowfall  
Snow Depth -    
Sea Level Pressure  
Sea Level Pressure 29.98 in    
Wind  
Wind Speed 5 mph (West)    
Max Wind Speed 13 mph    
Max Gust Speed 21 mph    
Visibility 10 miles    
Events Snow    
T = Trace of Precipitation, MM = Missing Value Source: NWS Daily Summary

Daily Weather History Graph

Daily Weather History Graph

Search for Another Location

Airport:

Trip Planner

Search our weather history database for the weather conditions in past years. The results will help you decide how hot, cold, wet, or windy it might be!

Date:

Astronomy

Mar. 21, 2013 Rise Set
Actual Time 7:29 AM EDT 7:41 PM EDT
Civil Twilight 7:03 AM EDT 8:08 PM EDT
Nautical Twilight 6:32 AM EDT 8:39 PM EDT
Astronomical Twilight 6:00 AM EDT 9:11 PM EDT
Moon 2:12 PM EDT (3/21) 3:48 AM EDT (3/21)
Length of Visible Light 13h 04m
Length of Day
12h 11m
Waxing Gibbous, 68% of the Moon is Illuminated
Mar 21
Waxing Gibbous
Mar 27
Full
Apr 3
Last Quarter
Apr 10
New
Apr 18
First Quarter

Hourly Weather History & Observations

Time (EDT) Temp. Windchill Dew Point Humidity Pressure Visibility Wind Dir Wind Speed Gust Speed Precip Events Conditions
12:15 AM 30.2 °F 21.9 °F 15.8 °F 55% 29.99 in 10.0 mi NW 9.2 mph 16.1 mph N/A   Overcast
12:35 AM 30.2 °F 24.3 °F 14.0 °F 51% 29.99 in 10.0 mi WNW 5.8 mph - N/A   Overcast
12:55 AM 30.2 °F 24.3 °F 14.0 °F 51% 29.99 in 10.0 mi WNW 5.8 mph - N/A   Overcast
1:15 AM 30.2 °F 23.4 °F 12.2 °F 47% 29.99 in 10.0 mi WNW 6.9 mph - N/A   Overcast
1:35 AM 30.2 °F 24.3 °F 12.2 °F 47% 29.99 in 10.0 mi West 5.8 mph - N/A   Overcast
2:15 AM 28.4 °F 24.6 °F 12.2 °F 51% 29.99 in 10.0 mi NW 3.5 mph - N/A   Mostly Cloudy
2:35 AM 28.4 °F 24.6 °F 12.2 °F 51% 29.99 in 10.0 mi WNW 3.5 mph - N/A   Scattered Clouds
2:55 AM 26.6 °F - 12.2 °F 55% 29.98 in 10.0 mi Calm Calm - N/A   Clear
3:15 AM 26.6 °F - 14.0 °F 59% 29.98 in 10.0 mi Calm Calm - N/A   Mostly Cloudy
3:35 AM 28.4 °F 24.6 °F 12.2 °F 51% 29.97 in 10.0 mi West 3.5 mph - N/A   Mostly Cloudy
3:55 AM 28.4 °F 24.6 °F 12.2 °F 51% 29.97 in 10.0 mi West 3.5 mph - N/A   Overcast
4:15 AM 26.6 °F 22.6 °F 12.2 °F 55% 29.96 in 10.0 mi West 3.5 mph - N/A   Mostly Cloudy
4:35 AM 26.6 °F 22.6 °F 14.0 °F 59% 29.95 in 10.0 mi WNW 3.5 mph - N/A   Overcast
4:55 AM 26.6 °F 22.6 °F 14.0 °F 59% 29.95 in 10.0 mi West 3.5 mph - N/A   Overcast
5:15 AM 26.6 °F - 14.0 °F 59% 29.94 in 10.0 mi Calm Calm - N/A   Overcast
5:35 AM 26.6 °F 20.0 °F 14.0 °F 59% 29.94 in 10.0 mi West 5.8 mph - N/A   Overcast
5:55 AM 26.6 °F 20.0 °F 17.6 °F 69% 29.95 in 10.0 mi WNW 5.8 mph - N/A   Overcast
6:15 AM 26.6 °F 21.2 °F 17.6 °F 69% 29.95 in 10.0 mi WNW 4.6 mph - N/A   Overcast
6:35 AM 26.6 °F - 17.6 °F 69% 29.94 in 10.0 mi Calm Calm - N/A   Overcast
6:55 AM 26.6 °F 21.2 °F 17.6 °F 69% 29.95 in 10.0 mi West 4.6 mph - N/A   Overcast
7:15 AM 26.6 °F - 17.6 °F 69% 29.94 in 10.0 mi Calm Calm - N/A   Overcast
7:35 AM 26.6 °F - 17.6 °F 69% 29.94 in 10.0 mi Calm Calm - N/A   Mostly Cloudy
7:55 AM 24.8 °F - 19.4 °F 80% 29.94 in 10.0 mi Calm Calm - N/A   Mostly Cloudy
8:15 AM 26.6 °F 22.6 °F 19.4 °F 74% 29.95 in 10.0 mi WNW 3.5 mph - N/A   Mostly Cloudy
8:35 AM 26.6 °F 21.2 °F 19.4 °F 74% 29.95 in 10.0 mi WNW 4.6 mph - N/A   Mostly Cloudy
8:55 AM 26.6 °F 20.0 °F 17.6 °F 69% 29.96 in 10.0 mi WNW 5.8 mph - N/A   Overcast
9:15 AM 28.4 °F 22.2 °F 17.6 °F 64% 29.96 in 10.0 mi West 5.8 mph - N/A   Mostly Cloudy
9:35 AM 28.4 °F 23.3 °F 17.6 °F 64% 29.96 in 10.0 mi West 4.6 mph - N/A   Mostly Cloudy
9:55 AM 28.4 °F 22.2 °F 17.6 °F 64% 29.97 in 10.0 mi WNW 5.8 mph - N/A   Mostly Cloudy
10:15 AM 28.4 °F 21.2 °F 19.4 °F 69% 29.97 in 7.0 mi West 6.9 mph - N/A   Mostly Cloudy
10:55 AM 30.2 °F 24.3 °F 17.6 °F 60% 29.98 in 10.0 mi NW 5.8 mph - N/A   Mostly Cloudy
11:15 AM 30.2 °F 24.3 °F 14.0 °F 51% 29.98 in 10.0 mi WNW 5.8 mph - N/A   Mostly Cloudy
11:35 AM 32.0 °F 26.4 °F 12.2 °F 44% 29.98 in 10.0 mi WNW 5.8 mph - N/A   Mostly Cloudy
11:55 AM 30.2 °F 26.7 °F 14.0 °F 51% 29.98 in 10.0 mi West 3.5 mph - N/A   Mostly Cloudy
12:15 PM 32.0 °F 25.6 °F 12.2 °F 44% 29.98 in 10.0 mi WNW 6.9 mph - N/A   Mostly Cloudy
12:35 PM 32.0 °F 26.4 °F 10.4 °F 41% 29.98 in 10.0 mi West 5.8 mph - N/A   Mostly Cloudy
12:55 PM 32.0 °F 24.2 °F 10.4 °F 41% 29.98 in 10.0 mi West 9.2 mph 19.6 mph N/A   Mostly Cloudy
1:15 PM 30.2 °F 23.4 °F 14.0 °F 51% 29.99 in 10.0 mi NW 6.9 mph - N/A   Mostly Cloudy
1:35 PM 30.2 °F 22.6 °F 14.0 °F 51% 29.99 in 7.0 mi West 8.1 mph 18.4 mph N/A Snow Light Snow
1:55 PM 32.0 °F 28.7 °F 12.2 °F 44% 29.98 in 10.0 mi NW 3.5 mph - N/A   Mostly Cloudy
2:15 PM 33.8 °F 24.8 °F 12.2 °F 41% 29.98 in 10.0 mi West 12.7 mph 20.7 mph N/A   Mostly Cloudy
2:35 PM 32.0 °F 25.6 °F 14.0 °F 48% 29.98 in 7.0 mi WNW 6.9 mph 18.4 mph N/A   Mostly Cloudy
2:55 PM 32.0 °F 23.0 °F 12.2 °F 44% 29.98 in 10.0 mi WNW 11.5 mph 17.3 mph N/A   Mostly Cloudy
3:15 PM 33.8 °F 27.0 °F 12.2 °F 41% 29.98 in 10.0 mi West 8.1 mph - N/A   Mostly Cloudy
3:35 PM 32.0 °F 25.6 °F 12.2 °F 44% 29.98 in 10.0 mi WNW 6.9 mph - N/A   Mostly Cloudy
3:55 PM 32.0 °F 24.8 °F 10.4 °F 41% 29.98 in 10.0 mi WNW 8.1 mph - N/A   Mostly Cloudy
4:15 PM 32.0 °F 25.6 °F 12.2 °F 44% 29.98 in 10.0 mi West 6.9 mph - N/A   Mostly Cloudy
4:35 PM 32.0 °F 26.4 °F 12.2 °F 44% 29.99 in 10.0 mi West 5.8 mph - N/A   Mostly Cloudy
4:55 PM 32.0 °F 27.5 °F 10.4 °F 41% 29.99 in 10.0 mi NW 4.6 mph 16.1 mph N/A   Overcast
5:15 PM 32.0 °F 26.4 °F 10.4 °F 41% 29.99 in 10.0 mi West 5.8 mph - N/A   Overcast
5:35 PM 32.0 °F 26.4 °F 12.2 °F 44% 30.00 in 10.0 mi West 5.8 mph - N/A   Overcast
5:55 PM 32.0 °F 26.4 °F 12.2 °F 44% 30.00 in 10.0 mi NW 5.8 mph - N/A   Overcast
6:15 PM 32.0 °F 24.8 °F 12.2 °F 44% 30.00 in 10.0 mi NW 8.1 mph - N/A   Overcast
6:35 PM 32.0 °F 26.4 °F 12.2 °F 44% 30.00 in 10.0 mi West 5.8 mph - N/A   Overcast
6:55 PM 32.0 °F 25.6 °F 12.2 °F 44% 30.00 in 10.0 mi West 6.9 mph - N/A   Overcast
7:15 PM 32.0 °F 25.6 °F 14.0 °F 48% 30.01 in 10.0 mi WSW 6.9 mph - N/A   Overcast
7:35 PM 32.0 °F 27.5 °F 14.0 °F 48% 30.01 in 10.0 mi WSW 4.6 mph - N/A   Mostly Cloudy
7:55 PM 30.2 °F 23.4 °F 14.0 °F 51% 30.01 in 10.0 mi WSW 6.9 mph - N/A   Mostly Cloudy
8:15 PM 30.2 °F 24.3 °F 14.0 °F 51% 30.01 in 10.0 mi WSW 5.8 mph - N/A   Scattered Clouds
8:35 PM 30.2 °F 25.4 °F 15.8 °F 55% 30.01 in 10.0 mi WSW 4.6 mph - N/A   Clear
8:55 PM 30.2 °F 25.4 °F 15.8 °F 55% 30.02 in 10.0 mi WSW 4.6 mph - N/A   Clear
9:15 PM 28.4 °F 22.2 °F 15.8 °F 59% 30.02 in 10.0 mi WSW 5.8 mph - N/A   Clear
9:35 PM 28.4 °F 24.6 °F 15.8 °F 59% 30.03 in 10.0 mi WSW 3.5 mph - N/A   Clear
9:55 PM 28.4 °F - 15.8 °F 59% 30.04 in 10.0 mi Calm Calm - N/A   Mostly Cloudy
10:15 PM 28.4 °F 23.3 °F 17.6 °F 64% 30.04 in 10.0 mi WSW 4.6 mph - N/A   Scattered Clouds
10:35 PM 26.6 °F 22.6 °F 15.8 °F 64% 30.03 in 10.0 mi SW 3.5 mph - N/A   Clear
10:55 PM 26.6 °F 22.6 °F 17.6 °F 69% 30.04 in 10.0 mi SW 3.5 mph - N/A   Clear
11:15 PM 26.6 °F 22.6 °F 17.6 °F 69% 30.04 in 10.0 mi WSW 3.5 mph - N/A   Clear
11:35 PM 26.6 °F - 15.8 °F 64% 30.04 in 10.0 mi Calm Calm - N/A   Scattered Clouds
11:55 PM 26.6 °F - 15.8 °F 64% 30.04 in 10.0 mi Calm Calm - N/A   Mostly Cloudy